Portada
METAR-TAF:

METAR-TAF

Aeropuertos :

Bandar Lengeh, Irán

latitud: 26-35N, longitud: 054-50E, altitud: 14 m

Observación

El informe se hizo hace 23 minutos, a las 13:00 UTC
Viento 6 kt del suroeste
Temperatura 22°C
Humedad 57%
Presión 1015 hPa
Visibilidad: 6000 m

METAR: OIBL 231300Z 22006KT 6000 NSC 22/13 Q1015

Hora: 16:53 (13:23 UTC)


TAF: falta

Observaciones y pronósticos meteorológicos de más de 4000 aeropuertos (mensajes METAR y TAF).

Los puntos amarillos y rojos representan las estaciones disponibles.

Ponga el ratón en el punto deseado para ver el nombre de la estación.

Haga clic para ver las observaciones y los pronósticos meteorológicos.

Para cambiar el mapa : haga clic en los botones verdes con una cruz de color negro para hacer un zoom, en el botón verde con un guión para alejar o en las flechas verdes para mapas adyacentes.


METAR-TAF: